TimeCST,TemperatureF,Dew PointF,Humidity,Sea Level PressureIn,VisibilityMPH,Wind Direction,Wind SpeedMPH,Gust SpeedMPH,PrecipitationIn,Events,Conditions,WindDirDegrees,DateUTC
12:15 AM,32.0,19.4,60,30.25,10.0,Calm,Calm,-,N/A,,Clear,0,2013-01-20 06:15:00
12:35 AM,30.2,19.4,64,30.25,10.0,SSW,5.8,-,N/A,,Clear,200,2013-01-20 06:35:00
12:55 AM,30.2,21.2,69,30.24,10.0,WSW,8.1,-,N/A,,Clear,240,2013-01-20 06:55:00
1:15 AM,30.2,21.2,69,30.24,10.0,WSW,5.8,-,N/A,,Clear,240,2013-01-20 07:15:00
1:35 AM,30.2,21.2,69,30.24,10.0,WSW,5.8,-,N/A,,Clear,250,2013-01-20 07:35:00
1:55 AM,30.2,21.2,69,30.24,10.0,WSW,3.5,-,N/A,,Clear,240,2013-01-20 07:55:00
2:15 AM,30.2,21.2,69,30.24,10.0,WSW,4.6,-,N/A,,Clear,240,2013-01-20 08:15:00
2:35 AM,32.0,21.2,64,30.24,10.0,SW,6.9,-,N/A,,Clear,220,2013-01-20 08:35:00
2:55 AM,32.0,21.2,64,30.24,10.0,SW,4.6,-,N/A,,Clear,220,2013-01-20 08:55:00
3:15 AM,30.2,21.2,69,30.23,10.0,SSW,5.8,-,N/A,,Clear,200,2013-01-20 09:15:00
3:35 AM,28.4,21.2,74,30.23,10.0,WSW,8.1,-,N/A,,Clear,240,2013-01-20 09:35:00
3:55 AM,28.4,21.2,74,30.22,10.0,SW,9.2,-,N/A,,Clear,220,2013-01-20 09:55:00
4:15 AM,28.4,21.2,74,30.22,10.0,SW,5.8,-,N/A,,Clear,220,2013-01-20 10:15:00
4:35 AM,30.2,21.2,69,30.21,10.0,SW,4.6,-,N/A,,Clear,230,2013-01-20 10:35:00
4:55 AM,30.2,21.2,69,30.21,10.0,WNW,3.5,-,N/A,,Clear,290,2013-01-20 10:55:00
5:15 AM,28.4,21.2,74,30.19,10.0,SW,5.8,-,N/A,,Clear,230,2013-01-20 11:15:00
5:35 AM,26.6,19.4,74,30.19,10.0,SW,8.1,-,N/A,,Clear,220,2013-01-20 11:35:00
5:55 AM,26.6,19.4,74,30.18,10.0,SSW,6.9,-,N/A,,Clear,210,2013-01-20 11:55:00
6:15 AM,24.8,19.4,80,30.17,10.0,SSW,10.4,-,N/A,,Clear,210,2013-01-20 12:15:00
6:35 AM,24.8,19.4,80,30.17,10.0,SSW,8.1,-,N/A,,Clear,210,2013-01-20 12:35:00
6:55 AM,26.6,19.4,74,30.17,10.0,SSW,6.9,-,N/A,,Clear,200,2013-01-20 12:55:00
7:15 AM,24.8,19.4,80,30.17,10.0,South,5.8,-,N/A,,Clear,170,2013-01-20 13:15:00
7:35 AM,23.0,19.4,86,30.17,10.0,South,6.9,-,N/A,,Clear,190,2013-01-20 13:35:00
7:55 AM,24.8,19.4,80,30.17,10.0,SSW,8.1,-,N/A,,Clear,210,2013-01-20 13:55:00
8:15 AM,28.4,23.0,80,30.17,10.0,SW,9.2,-,N/A,,Clear,220,2013-01-20 14:15:00
8:35 AM,32.0,24.8,75,30.16,10.0,SSW,9.2,-,N/A,,Clear,210,2013-01-20 14:35:00
8:55 AM,33.8,26.6,75,30.16,10.0,SSW,6.9,-,N/A,,Clear,200,2013-01-20 14:55:00
9:15 AM,37.4,26.6,65,30.16,10.0,SSW,10.4,-,N/A,,Clear,200,2013-01-20 15:15:00
9:35 AM,41.0,26.6,57,30.17,10.0,SSW,10.4,-,N/A,,Clear,200,2013-01-20 15:35:00
9:55 AM,42.8,26.6,53,30.17,10.0,SSW,10.4,18.4,N/A,,Clear,200,2013-01-20 15:55:00
10:15 AM,44.6,26.6,49,30.17,10.0,SSW,11.5,-,N/A,,Clear,200,2013-01-20 16:15:00
10:35 AM,46.4,28.4,50,30.17,10.0,SSW,10.4,-,N/A,,Clear,200,2013-01-20 16:35:00
10:55 AM,50.0,26.6,40,30.17,10.0,South,15.0,-,N/A,,Clear,190,2013-01-20 16:55:00
11:15 AM,50.0,26.6,40,30.16,10.0,South,16.1,-,N/A,,Clear,180,2013-01-20 17:15:00
11:35 AM,51.8,26.6,38,30.16,10.0,South,16.1,-,N/A,,Clear,180,2013-01-20 17:35:00
11:55 AM,53.6,26.6,35,30.15,10.0,South,13.8,17.3,N/A,,Clear,180,2013-01-20 17:55:00
12:15 PM,53.6,26.6,35,30.14,10.0,South,15.0,18.4,N/A,,Clear,180,2013-01-20 18:15:00
12:35 PM,55.4,26.6,33,30.12,10.0,South,15.0,-,N/A,,Clear,180,2013-01-20 18:35:00
12:55 PM,57.2,26.6,31,30.10,10.0,SSW,12.7,-,N/A,,Clear,200,2013-01-20 18:55:00
1:15 PM,59.0,26.6,29,30.10,10.0,SW,11.5,17.3,N/A,,Clear,220,2013-01-20 19:15:00
1:55 PM,59.0,24.8,27,30.08,10.0,WSW,10.4,17.3,N/A,,Clear,240,2013-01-20 19:55:00
2:15 PM,60.8,21.2,22,30.07,10.0,WSW,6.9,17.3,N/A,,Clear,240,2013-01-20 20:15:00
2:35 PM,62.6,21.2,20,30.07,10.0,West,9.2,-,N/A,,Clear,260,2013-01-20 20:35:00
2:55 PM,60.8,19.4,20,30.06,10.0,WNW,10.4,-,N/A,,Clear,290,2013-01-20 20:55:00
3:15 PM,60.8,17.6,19,30.07,10.0,NW,10.4,-,N/A,,Clear,320,2013-01-20 21:15:00
3:35 PM,60.8,19.4,20,30.07,10.0,NNW,12.7,18.4,N/A,,Clear,340,2013-01-20 21:35:00
3:55 PM,60.8,19.4,20,30.08,10.0,North,16.1,19.6,N/A,,Clear,350,2013-01-20 21:55:00
4:15 PM,59.0,19.4,22,30.09,10.0,North,15.0,-,N/A,,Clear,10,2013-01-20 22:15:00
4:35 PM,59.0,21.2,23,30.10,10.0,North,20.7,25.3,N/A,,Clear,360,2013-01-20 22:35:00
4:55 PM,55.4,23.0,29,30.10,10.0,North,17.3,27.6,N/A,,Clear,10,2013-01-20 22:55:00
5:15 PM,53.6,23.0,30,30.11,10.0,North,17.3,23.0,N/A,,Clear,10,2013-01-20 23:15:00
5:35 PM,51.8,23.0,33,30.12,10.0,North,13.8,19.6,N/A,,Clear,10,2013-01-20 23:35:00
5:55 PM,50.0,23.0,35,30.14,10.0,NNE,9.2,-,N/A,,Clear,20,2013-01-20 23:55:00
6:15 PM,46.4,26.6,46,30.15,10.0,NNE,10.4,-,N/A,,Clear,20,2013-01-21 00:15:00
6:35 PM,46.4,28.4,50,30.16,10.0,NNE,12.7,-,N/A,,Clear,30,2013-01-21 00:35:00
6:55 PM,44.6,28.4,53,30.17,10.0,NE,10.4,-,N/A,,Clear,50,2013-01-21 00:55:00
7:15 PM,41.0,28.4,61,30.18,10.0,NE,8.1,-,N/A,,Clear,50,2013-01-21 01:15:00
7:35 PM,37.4,26.6,65,30.19,10.0,NNE,11.5,-,N/A,,Clear,20,2013-01-21 01:35:00
7:55 PM,37.4,26.6,65,30.19,10.0,North,11.5,-,N/A,,Clear,10,2013-01-21 01:55:00
8:15 PM,35.6,26.6,70,30.20,10.0,North,13.8,-,N/A,,Clear,10,2013-01-21 02:15:00
8:35 PM,37.4,26.6,65,30.21,10.0,North,11.5,-,N/A,,Clear,10,2013-01-21 02:35:00
8:55 PM,35.6,26.6,70,30.22,10.0,NNE,12.7,-,N/A,,Clear,20,2013-01-21 02:55:00
9:15 PM,35.6,28.4,75,30.23,10.0,NNE,16.1,20.7,N/A,,Clear,30,2013-01-21 03:15:00
9:35 PM,35.6,30.2,81,30.24,10.0,NNE,21.9,26.5,N/A,,Clear,30,2013-01-21 03:35:00
9:55 PM,33.8,28.4,81,30.25,10.0,NNE,17.3,24.2,N/A,,Clear,30,2013-01-21 03:55:00
10:15 PM,32.0,28.4,87,30.27,10.0,NNE,17.3,20.7,N/A,,Clear,30,2013-01-21 04:15:00
10:35 PM,32.0,26.6,80,30.28,10.0,NE,17.3,23.0,N/A,,Clear,40,2013-01-21 04:35:00
10:55 PM,30.2,24.8,80,30.29,10.0,NE,16.1,-,N/A,,Clear,40,2013-01-21 04:55:00
11:15 PM,30.2,24.8,80,30.30,10.0,NE,12.7,-,N/A,,Clear,50,2013-01-21 05:15:00
11:35 PM,28.4,23.0,80,30.31,10.0,NE,12.7,19.6,N/A,,Clear,50,2013-01-21 05:35:00
11:55 PM,28.4,23.0,80,30.31,10.0,NE,11.5,-,N/A,,Clear,50,2013-01-21 05:55:00